Theta_e
346 347 348 349 349 348 349 349 348 347 345 344 343 341 341 340 340 340 340 340 339 339 339 339 338 340 341 341 342 342 343 342 343 345 345 345 344 343 343 343 343 344
343 347 349 349 349 349 349 349 349 348 347 345 343 343 343 342 341 340 340 341 340 340 341 339 339 340 341 342 342 342 342 342 343 344 344 343 343 341 340 340 341 342
340 344 348 348 348 349 349 349 350 350 349 347 346 347 346 344 343 342 342 342 341 341 341 340 340 340 340 341 342 342 341 341 342 343 343 343 342 340 340 339 338 338
336 340 346 348 348 348 349 349 350 350 349 349 349 349 348 346 344 343 343 343 342 342 341 341 341 341 341 341 342 343 343 342 342 342 343 343 343 341 340 339 338 337
335 336 342 347 347 347 348 348 350 350 350 350 349 349 348 346 346 345 344 344 343 343 342 342 342 342 342 342 343 344 344 344 343 343 343 344 344 343 342 341 339 337
334 334 337 343 347 347 347 348 349 350 350 349 349 349 348 347 347 346 346 345 344 344 344 343 343 343 343 344 344 344 344 344 344 343 343 344 344 344 344 343 341 340
332 332 333 338 344 346 347 347 348 348 348 348 348 348 348 348 348 348 347 346 346 345 344 344 344 344 345 345 345 345 345 344 344 344 344 343 343 344 344 343 343 342
332 331 332 334 339 342 344 345 346 346 347 347 347 347 347 347 348 348 348 347 347 346 347 346 345 345 346 347 347 346 345 345 344 344 344 343 343 343 343 343 343 343
334 332 332 333 335 337 338 340 340 341 343 345 346 347 347 347 347 346 347 347 347 348 348 348 348 347 348 348 348 347 346 345 345 344 344 343 343 343 343 343 343 343
337 336 335 333 333 334 335 336 336 336 338 341 343 344 345 346 346 346 345 345 347 348 349 349 349 349 349 349 348 347 346 346 345 344 343 344 343 343 343 343 343 343
341 339 338 336 334 333 333 333 334 334 334 336 338 339 341 342 343 343 343 343 344 346 348 349 349 350 349 348 348 348 347 347 346 343 342 342 343 343 343 343 343 343
343 342 341 338 336 335 334 333 333 333 332 333 334 335 336 338 339 340 341 342 343 344 345 346 348 349 349 348 348 347 347 347 345 344 342 340 340 341 342 342 343 343
345 344 343 341 339 337 336 336 335 334 333 333 333 333 334 335 336 337 338 340 342 344 344 345 346 347 348 348 348 347 347 346 346 345 344 343 342 340 341 342 343 343
345 345 345 344 344 341 339 338 337 336 335 335 335 334 334 335 335 335 336 337 339 341 344 345 345 346 346 347 348 347 347 347 347 347 347 346 346 344 343 343 343 343
344 345 346 346 347 346 344 342 339 337 336 336 336 336 335 334 332 332 332 333 334 337 342 344 344 344 344 345 346 347 347 347 347 347 347 347 347 347 346 345 345 344
341 343 345 346 346 348 348 347 345 343 340 339 338 337 336 333 330 329 330 331 331 334 338 342 343 343 343 343 344 345 345 346 346 346 347 347 347 347 347 346 346 346
340 342 343 344 346 347 349 349 349 348 347 345 343 341 338 335 333 333 334 333 333 334 337 340 343 344 343 343 344 344 344 344 345 345 345 346 346 346 346 346 346 346
341 341 342 345 348 349 350 350 350 350 350 350 348 345 343 343 342 342 340 339 338 338 340 341 341 341 341 343 344 345 345 345 345 345 345 345 345 345 345 345 345 345
345 345 345 347 348 350 351 352 351 352 352 352 351 348 347 348 350 350 348 346 346 346 346 345 342 341 341 342 343 344 345 345 345 345 345 345 345 345 345 345 344 344
348 348 347 347 347 349 352 353 352 353 353 353 352 351 350 351 352 353 353 353 352 352 351 349 347 346 345 344 343 343 344 344 345 345 345 345 346 346 346 346 345 344
348 348 347 348 348 349 350 351 351 351 350 350 351 351 351 352 352 353 354 354 354 353 352 351 350 348 348 347 346 346 345 345 345 345 345 345 345 345 346 347 346 345
348 348 348 348 349 349 349 349 349 349 348 348 349 349 349 350 351 352 352 353 352 352 351 351 350 349 348 348 348 347 347 347 347 346 345 344 344 344 345 345 345 345
347 348 348 347 347 347 347 347 347 347 347 347 348 348 348 349 350 350 350 350 350 350 351 350 350 349 348 348 349 349 348 349 348 346 345 344 345 345 344 345 344 344
342 342 341 341 342 343 344 343 344 344 344 344 345 346 347 347 348 348 348 349 349 349 349 349 349 350 349 349 350 349 349 349 349 347 346 346 347 347 346 346 346 345
338 338 338 339 340 342 342 341 340 340 341 341 341 342 343 344 345 345 345 346 346 346 347 347 348 348 349 350 350 350 350 349 349 348 348 349 349 349 349 349 348 348
334 334 334 334 335 338 338 338 338 338 338 338 337 338 339 340 340 341 342 342 342 343 343 344 345 345 346 347 348 348 348 348 348 349 349 350 350 350 350 350 349 349
Wind_Speed
13 13 12 11 10 9 8 8 7 8 9 8 7 6 6 6 7 7 7 7 7 7 7 7 8 8 8 8 8 8 8 8 8 7 7 7 7 8 8 8 8 6
14 14 13 12 11 10 9 8 8 7 7 7 7 6 6 6 7 8 7 7 7 7 7 8 8 8 8 8 8 8 8 8 7 7 7 7 7 7 8 8 9 8
15 15 14 13 12 10 9 9 8 8 7 8 7 6 6 6 7 7 7 7 7 7 8 8 8 8 8 8 8 8 8 7 7 7 7 7 7 8 8 8 9 9
15 15 15 14 13 11 10 9 9 9 9 8 8 7 7 7 7 7 7 8 8 8 8 8 8 8 8 8 8 7 8 8 8 8 8 7 8 8 9 9 9 10
15 15 15 15 14 13 11 11 10 10 9 9 8 7 8 8 8 8 8 8 8 8 8 8 8 8 8 8 8 8 8 8 8 8 8 8 8 9 9 9 10 10
16 16 15 15 15 14 13 11 11 11 10 9 8 8 8 8 8 8 8 8 8 8 8 8 8 8 8 8 8 7 7 7 7 8 8 8 8 9 10 10 10 10
17 17 17 16 16 15 14 13 12 12 10 10 10 9 9 8 8 7 7 8 8 9 8 8 8 7 7 7 7 7 6 6 7 7 7 8 8 9 10 10 11 10
17 18 18 17 17 16 15 14 13 13 12 11 10 10 9 9 8 8 8 8 8 9 8 8 8 7 7 6 7 7 7 7 7 7 7 7 7 8 8 9 10 10
17 17 18 19 19 18 17 15 14 13 13 12 11 10 10 9 9 9 9 9 9 9 8 8 7 7 7 7 7 7 7 7 7 7 7 7 7 7 7 8 9 9
16 16 17 18 19 20 19 17 15 14 14 13 12 11 11 10 10 9 9 10 10 9 9 8 8 7 7 8 7 7 7 7 7 8 8 8 8 8 8 8 8 8
15 15 17 18 19 19 19 18 17 16 15 14 13 13 12 12 11 11 10 10 10 10 10 9 8 8 7 7 7 7 6 6 7 8 8 9 9 9 8 8 8 8
16 16 16 17 18 18 19 19 18 18 17 16 15 15 14 14 13 13 12 11 11 11 11 10 9 8 7 7 6 6 6 6 6 6 7 8 9 9 9 9 9 9
19 17 16 17 18 18 19 19 19 19 19 19 18 17 16 16 15 15 14 13 13 12 12 11 11 10 8 7 6 6 6 5 5 5 6 6 7 8 9 10 10 9
21 20 18 17 17 18 19 20 20 20 20 20 19 19 18 18 17 17 16 15 15 14 13 13 12 12 11 9 8 7 7 6 6 6 6 6 6 7 8 9 10 10
22 22 20 19 18 18 19 20 20 20 20 20 20 20 20 19 18 18 18 17 16 16 15 14 14 14 13 12 10 9 9 9 9 8 8 8 8 7 7 8 8 9
25 24 22 21 20 19 19 19 19 19 19 20 20 20 21 20 20 19 19 18 17 16 16 15 15 15 14 13 13 12 11 11 11 11 10 10 10 9 9 8 8 9
29 27 25 22 21 21 20 19 19 19 19 19 19 19 19 19 20 19 18 17 16 16 16 16 16 16 16 15 15 14 13 13 13 13 12 12 12 12 11 11 11 11
31 29 27 23 21 21 21 21 20 19 19 19 19 19 18 19 19 19 17 16 16 16 16 17 18 18 17 17 16 15 14 14 14 14 14 14 14 14 13 13 13 13
29 27 26 23 21 21 22 22 22 21 20 20 20 20 19 19 18 18 17 16 16 15 16 17 18 18 17 17 17 16 15 15 15 15 15 15 15 15 15 15 15 15
24 24 23 23 23 23 21 20 21 22 20 17 17 18 18 18 17 17 17 17 16 15 16 17 17 17 17 17 16 16 16 16 16 15 16 16 16 16 16 16 17 17
21 21 20 20 20 20 19 18 19 19 17 13 12 11 11 13 16 17 18 18 17 16 17 18 18 18 18 17 17 16 16 16 17 17 17 18 18 18 18 18 18 19
16 16 16 17 16 15 15 14 14 12 11 11 11 11 11 12 15 16 17 18 18 18 19 20 20 20 20 19 19 18 18 18 18 18 19 19 19 20 20 20 20 20
15 15 16 15 14 12 10 9 9 9 9 10 11 13 13 13 13 13 14 15 16 17 19 19 20 21 21 21 21 20 20 20 20 20 20 20 20 20 21 21 21 22
12 11 10 10 9 7 6 4 3 4 4 5 6 9 10 10 10 10 10 10 11 13 14 15 16 18 19 19 19 19 19 19 19 19 19 19 19 20 21 21 21 22
13 12 12 12 12 12 11 9 8 7 6 5 4 4 5 6 6 6 6 6 8 9 9 10 10 11 12 13 13 13 13 14 15 15 15 16 17 17 18 18 19 20
16 15 15 15 15 14 11 9 9 9 9 9 7 5 4 4 4 3 3 4 5 6 6 7 7 7 8 9 9 10 10 10 10 11 12 14 15 15 15 15 16 17
Wind_Direction
211 208 205 204 205 207 209 211 217 220 218 212 206 205 206 204 203 203 206 208 207 209 215 221 219 213 213 218 222 227 233 237 243 252 257 261 265 259 255 257 256 255
211 210 209 208 208 210 214 215 216 219 219 213 201 194 198 204 203 201 201 204 208 212 216 221 220 216 217 219 222 228 234 237 242 251 258 261 265 267 264 264 263 261
212 212 211 212 212 211 214 216 214 211 210 209 204 200 200 203 205 204 201 203 209 215 218 220 221 221 223 224 226 231 235 236 241 248 253 257 262 266 268 269 270 268
214 214 213 213 214 214 215 216 215 211 206 206 207 208 204 200 203 205 204 207 210 213 217 220 223 226 229 232 235 239 243 244 245 249 252 254 257 260 262 266 269 269
217 217 215 215 214 215 218 218 215 211 209 208 206 207 207 202 200 204 208 212 213 214 215 217 221 227 231 235 239 243 247 250 250 252 253 251 254 256 257 259 262 265
220 220 218 218 218 216 217 217 216 214 211 209 205 202 204 205 205 208 213 216 217 217 217 216 218 224 231 236 240 244 248 253 256 257 256 252 251 254 256 258 260 261
223 221 219 220 221 220 218 216 217 218 216 213 209 205 204 207 211 214 219 222 222 220 220 221 220 223 231 237 242 248 251 257 261 263 262 259 255 256 259 261 261 261
225 223 221 220 222 224 223 220 220 221 221 219 217 214 212 213 216 220 224 227 228 228 226 228 227 226 234 244 250 256 259 264 266 267 268 268 265 263 263 263 263 264
226 225 223 223 223 225 225 225 225 224 223 223 223 223 222 222 224 226 228 229 230 231 231 230 229 230 238 250 256 260 264 269 273 272 271 272 273 272 269 267 265 265
228 226 225 224 225 227 226 226 227 227 226 223 223 226 226 226 228 230 232 232 230 230 230 230 231 234 243 250 253 256 264 272 276 276 272 270 271 273 271 270 269 268
229 229 228 226 226 229 229 228 227 227 226 225 225 226 226 226 228 231 235 236 233 232 232 232 233 236 240 244 248 255 263 272 279 280 277 274 272 272 272 270 270 272
232 231 231 229 228 230 232 233 233 231 230 228 227 227 228 227 228 230 233 235 236 235 235 234 233 233 234 235 240 250 258 267 276 281 282 280 278 276 275 272 271 272
238 234 233 233 232 231 233 235 236 236 234 233 232 231 231 232 233 233 233 234 235 235 234 232 229 229 231 232 236 244 251 257 267 278 286 289 288 283 280 278 277 277
245 242 238 235 234 232 233 234 235 237 237 237 236 235 234 234 234 235 235 235 236 235 233 230 228 228 229 230 235 242 249 255 261 269 280 288 293 292 287 283 282 283
245 245 243 239 237 235 233 233 233 234 236 238 238 238 237 236 235 236 236 236 237 237 235 232 232 230 228 229 232 237 244 252 256 261 269 276 280 283 283 283 284 286
241 243 243 242 242 241 238 235 233 232 233 236 237 239 239 238 238 238 238 238 238 237 238 238 238 236 233 231 232 233 238 244 249 254 260 265 267 268 268 269 273 277
240 242 243 244 249 250 244 238 236 234 234 235 237 237 237 235 236 237 237 238 237 237 239 241 242 240 236 233 232 234 237 242 246 251 256 261 266 268 268 268 270 271
240 242 242 245 252 254 247 240 237 237 236 236 236 234 232 231 232 234 235 236 236 236 239 242 243 242 239 236 235 237 242 247 251 255 260 265 270 275 277 278 278 278
239 239 239 244 252 255 248 241 239 238 237 237 236 234 230 230 233 234 236 237 238 240 243 244 244 245 244 242 240 241 246 252 257 260 263 267 271 276 279 280 282 282
234 236 240 246 252 252 245 239 237 235 232 231 233 233 232 233 235 236 239 242 243 245 247 247 247 248 248 247 245 245 249 255 260 263 265 267 268 272 275 277 280 281
233 236 237 239 240 237 233 232 232 229 223 215 214 219 226 233 238 240 243 246 246 246 248 250 251 251 251 251 249 249 252 257 262 265 267 269 269 270 272 274 276 279
213 212 210 210 211 214 220 227 231 229 227 224 224 227 231 236 240 243 246 248 248 249 251 253 254 253 253 253 253 253 255 259 263 267 269 271 272 273 274 276 278 279
179 182 184 187 194 203 214 227 234 236 237 235 234 231 227 230 237 243 247 250 251 251 251 251 252 253 253 254 256 257 259 261 265 268 271 274 276 276 276 279 281 283
153 161 163 164 169 169 167 169 174 192 207 213 220 222 220 224 233 239 244 249 251 252 252 251 251 252 251 253 256 259 261 264 265 268 271 274 277 278 278 279 281 283
114 117 121 124 125 125 124 120 115 116 119 122 138 173 190 201 211 216 221 231 236 237 240 244 249 251 251 250 253 257 260 262 264 265 269 272 275 277 278 278 279 281
103 106 112 115 116 119 120 116 109 105 102 101 103 103 111 134 155 164 181 201 211 212 216 226 236 245 249 250 253 257 258 261 263 265 269 272 273 273 274 275 275 276